Leonardtown, MD

5:30 AM EDT on September 24, 2017 (GMT -0400)
Leonardtown

Weather History for K2W6 - January, 2014

Change the Weather History Date:

Sunday, January 5, 2014

  Actual Average (KNHK) Record (KNHK)
Temperature  
Mean Temperature 46 °F -  
Max Temperature 59 °F 39 °F 111 °F (2005)
Min Temperature 33 °F 26 °F -50 °F (1999)
Degree Days  
Heating Degree Days 19    
Moisture  
Dew Point 35 °F    
Average Humidity 76    
Maximum Humidity 94    
Minimum Humidity 62    
Precipitation  
Precipitation 0.00 in - - ()
Sea Level Pressure  
Sea Level Pressure 30.09 in    
Wind  
Wind Speed 3 mph (SE)    
Max Wind Speed 12 mph    
Max Gust Speed 18 mph    
Visibility 10 miles    
Events      
Averages and records for this station are not official NWS values.
T = Trace of Precipitation, MM = Missing Value Source: NWS Daily Summary

Daily Weather History Graph

Daily Weather History Graph

Search for Another Location

Airport or City:

Trip Planner

Search our weather history database for the weather conditions in past years. The results will help you decide how hot, cold, wet, or windy it might be!

Date:

Astronomy

Jan. 05, 2014 Rise Set
Actual Time 7:23 AM EST 5:00 PM EST
Civil Twilight 6:54 AM EST 5:29 PM EST
Nautical Twilight 6:21 AM EST 6:02 PM EST
Astronomical Twilight 5:49 AM EST 6:34 PM EST
Moon 10:08 AM EST (1/5) 10:20 PM EST (1/5)
Length of Visible Light 10h 35m
Length of Day
9h 36m
Waxing Crescent, 24% of the Moon is Illuminated
Jan 5
Waxing Crescent
Jan 7
First Quarter
Jan 15
Full
Jan 24
Last Quarter
Jan 30
New

Hourly Weather History & Observations

Time (EST) Temp. Windchill Dew Point Humidity Pressure Visibility Wind Dir Wind Speed Gust Speed Precip Events Conditions
12:14 AM 35.6 °F 30.7 °F 24.8 °F 65% 30.30 in 10.0 mi SSW 5.8 mph - N/A   Overcast
12:34 AM 35.6 °F 31.7 °F 24.8 °F 65% 30.29 in 10.0 mi South 4.6 mph - N/A   Overcast
12:54 AM 35.6 °F 30.7 °F 24.8 °F 65% 30.30 in 10.0 mi SW 5.8 mph - N/A   Overcast
1:14 AM 35.6 °F 31.7 °F 24.8 °F 65% 30.30 in 10.0 mi SW 4.6 mph - N/A   Overcast
1:34 AM 35.6 °F - 24.8 °F 65% 30.31 in - North - - N/A   Overcast
1:54 AM 35.6 °F - 24.8 °F 65% - - North - - N/A   Unknown
2:14 AM 35.6 °F - 24.8 °F 65% - 10.0 mi North - - N/A   Unknown
2:34 AM 35.6 °F - 24.8 °F 65% - - North - - N/A   Unknown
2:54 AM 35.6 °F - 24.8 °F 65% - - North - - N/A   Unknown
3:14 AM - - - N/A% - - North - - N/A   Unknown
3:34 AM 35.6 °F - 24.8 °F 65% 30.29 in - North - - N/A   Unknown
3:54 AM 35.6 °F - 24.8 °F 65% - - North - - N/A   Unknown
4:14 AM 35.6 °F 32.8 °F 26.6 °F 70% 30.28 in 10.0 mi SSW 3.5 mph - N/A   Overcast
4:34 AM 35.6 °F - 26.6 °F 70% 30.27 in 10.0 mi Calm Calm - N/A   Overcast
4:55 AM 35.6 °F - 24.8 °F 65% 30.27 in 10.0 mi Calm Calm - N/A   Overcast
5:15 AM 35.6 °F 32.8 °F 26.6 °F 70% 30.27 in 10.0 mi SSW 3.5 mph - N/A   Overcast
5:35 AM 35.6 °F - 26.6 °F 70% 30.26 in 10.0 mi Calm Calm - N/A   Overcast
5:55 AM 35.6 °F - 28.4 °F 75% 30.26 in 7.0 mi Calm Calm - N/A   Overcast
6:15 AM 33.8 °F - 30.2 °F 87% 30.27 in 10.0 mi Calm Calm - N/A   Overcast
6:35 AM 33.8 °F 29.6 °F 32.0 °F 93% 30.26 in 10.0 mi East 4.6 mph - N/A   Overcast
6:55 AM 33.8 °F - 30.2 °F 87% 30.27 in 10.0 mi Calm Calm - N/A   Overcast
7:15 AM 33.8 °F - 30.2 °F 87% 30.27 in 10.0 mi Calm Calm - N/A   Overcast
7:35 AM 33.8 °F - 30.2 °F 87% 30.27 in 10.0 mi Calm Calm - N/A   Overcast
7:55 AM 33.8 °F - 30.2 °F 87% 30.27 in 10.0 mi Calm Calm - N/A   Overcast
8:15 AM 35.6 °F - 30.2 °F 81% 30.27 in 10.0 mi Calm Calm - N/A   Overcast
8:35 AM 35.6 °F - 28.4 °F 75% 30.26 in 10.0 mi Calm Calm - N/A   Overcast
8:55 AM 37.4 °F - 28.4 °F 70% 30.26 in 10.0 mi Calm Calm - N/A   Mostly Cloudy
9:15 AM 37.4 °F - 28.4 °F 70% 30.26 in 10.0 mi Calm Calm - N/A   Overcast
9:35 AM 39.2 °F - 28.4 °F 65% 30.25 in 10.0 mi Calm Calm - N/A   Overcast
9:55 AM 41.0 °F - 30.2 °F 65% 30.25 in 10.0 mi Calm Calm - N/A   Overcast
10:15 AM 41.0 °F - 30.2 °F 65% 30.24 in 10.0 mi Calm Calm - N/A   Overcast
10:35 AM 41.0 °F - 32.0 °F 70% 30.22 in 10.0 mi Calm Calm - N/A   Overcast
10:55 AM 41.0 °F 38.0 °F 32.0 °F 70% 30.21 in 10.0 mi East 4.6 mph - N/A   Overcast
11:15 AM 42.8 °F 40.1 °F 32.0 °F 66% 30.19 in 10.0 mi East 4.6 mph - N/A   Overcast
11:35 AM 42.8 °F - 32.0 °F 66% 30.17 in 10.0 mi Calm Calm - N/A   Overcast
11:55 AM 44.6 °F 42.2 °F 33.8 °F 66% 30.15 in 10.0 mi ESE 4.6 mph - N/A   Scattered Clouds
12:15 PM 46.4 °F 44.3 °F 33.8 °F 62% 30.13 in 10.0 mi East 4.6 mph - N/A   Mostly Cloudy
12:35 PM 46.4 °F 43.5 °F 33.8 °F 62% 30.12 in 10.0 mi ENE 5.8 mph - N/A   Mostly Cloudy
12:55 PM 44.6 °F 42.2 °F 33.8 °F 66% 30.12 in 10.0 mi East 4.6 mph - N/A   Mostly Cloudy
1:15 PM 46.4 °F 43.5 °F 35.6 °F 66% 30.11 in 10.0 mi ENE 5.8 mph - N/A   Overcast
1:36 PM 46.4 °F - 35.6 °F 66% 30.10 in 10.0 mi Calm Calm - N/A   Overcast
1:56 PM 46.4 °F - 35.6 °F 66% 30.09 in 10.0 mi Calm Calm - N/A   Overcast
2:16 PM 46.4 °F - 37.4 °F 71% 30.08 in 10.0 mi Calm Calm - N/A   Overcast
2:36 PM 46.4 °F 45.2 °F 35.6 °F 66% 30.07 in 10.0 mi ENE 3.5 mph - N/A   Overcast
2:56 PM 46.4 °F - 35.6 °F 66% 30.06 in 10.0 mi Calm Calm - N/A   Overcast
3:16 PM 46.4 °F - 35.6 °F 66% 30.06 in 10.0 mi Calm Calm - N/A   Overcast
3:36 PM 46.4 °F 45.2 °F 37.4 °F 71% 30.05 in 10.0 mi East 3.5 mph - N/A   Overcast
3:56 PM 46.4 °F - 37.4 °F 71% 30.04 in 10.0 mi Calm Calm - N/A   Overcast
4:16 PM 44.6 °F 43.1 °F 37.4 °F 76% 30.03 in 10.0 mi ENE 3.5 mph - N/A   Overcast
4:36 PM 44.6 °F 42.2 °F 37.4 °F 76% 30.02 in 10.0 mi East 4.6 mph - N/A   Overcast
4:56 PM 44.6 °F 43.1 °F 37.4 °F 76% 30.01 in 10.0 mi ENE 3.5 mph - N/A   Overcast
5:16 PM 44.6 °F 42.2 °F 39.2 °F 81% 30.00 in 10.0 mi East 4.6 mph - N/A   Overcast
5:36 PM 44.6 °F - 41.0 °F 87% 29.98 in 10.0 mi Calm Calm - N/A   Overcast
5:56 PM 44.6 °F - 39.2 °F 81% 29.98 in 10.0 mi Calm Calm - N/A   Overcast
6:16 PM 42.8 °F - 37.4 °F 81% 29.96 in 10.0 mi Calm Calm - N/A   Overcast
6:36 PM 42.8 °F 41.1 °F 41.0 °F 93% 29.95 in 10.0 mi East 3.5 mph - N/A   Overcast
6:56 PM 44.6 °F - 41.0 °F 87% 29.94 in 10.0 mi Calm Calm - N/A   Overcast
7:16 PM 44.6 °F 42.2 °F 42.8 °F 93% 29.92 in 10.0 mi East 4.6 mph - N/A   Overcast
7:36 PM 44.6 °F 42.2 °F 42.8 °F 93% 29.91 in 10.0 mi East 4.6 mph - N/A   Overcast
7:56 PM 46.4 °F 44.3 °F 44.6 °F 93% 29.91 in 7.0 mi East 4.6 mph - N/A   Overcast
8:16 PM 46.4 °F 44.3 °F 44.6 °F 93% 29.89 in 7.0 mi ESE 4.6 mph - N/A   Overcast
8:36 PM 50.0 °F - 48.2 °F 94% 29.86 in 10.0 mi SE 6.9 mph - N/A   Overcast
8:56 PM 51.8 °F - 50.0 °F 94% 29.86 in 10.0 mi SE 5.8 mph - N/A   Overcast
9:16 PM 53.6 °F - 51.8 °F 94% 29.84 in 10.0 mi SSE 5.8 mph - N/A   Overcast
9:36 PM 55.4 °F - 51.8 °F 88% 29.82 in 10.0 mi SSE 4.6 mph - N/A   Overcast
9:56 PM 55.4 °F - 53.6 °F 94% 29.81 in 10.0 mi SSE 6.9 mph - N/A   Overcast
10:17 PM 55.4 °F - 53.6 °F 94% 29.80 in 7.0 mi SSE 6.9 mph - N/A   Overcast
10:37 PM 57.2 °F - 53.6 °F 88% 29.78 in 10.0 mi SSE 6.9 mph - N/A   Overcast
10:57 PM 57.2 °F - 55.4 °F 94% 29.77 in 10.0 mi South 8.1 mph - N/A   Overcast
11:17 PM 59.0 °F - 55.4 °F 88% 29.77 in 10.0 mi South 9.2 mph - N/A   Overcast
11:37 PM 59.0 °F - 55.4 °F 88% 29.75 in 10.0 mi South 11.5 mph 18.4 mph N/A   Overcast
11:57 PM 59.0 °F - 55.4 °F 88% 29.74 in 10.0 mi South 11.5 mph 17.3 mph N/A   Overcast